Regional Weather Roundup
Issued by NWS

Home | Current Version | Previous Version | Text Only | Print | Product List | Glossary On
Versions: 1 2 3 4 5 6 7 8 9 10 11 12 13 14 15 16 17 18 19 20 21 22 23 24 25 26 27 28 29 30 31 32 33 34 35 36 37 38 39 40 41 42 43 44 45 46 47 48 49 50
000
ASUS43 KMPX 030210
RWRMN
WEATHER ROUNDUP FOR MINNESOTA
NATIONAL WEATHER SERVICE TWIN CITIES/CHANHASSEN MN
900 PM CDT SAT MAY 02 2015


NOTE: "FAIR" INDICATES FEW OR NO CLOUDS BELOW 12,000 FEET WITH NO
SIGNIFICANT WEATHER AND/OR OBSTRUCTIONS TO VISIBILITY. N/A MEANS
CURRENT SKY AND/OR WEATHER CONDITIONS ARE NOT AVAILABLE.

MNZ060>063-068>070-030300-
   Twin Cities Metro

CITY           SKY/WX    TMP DP  RH WIND       PRES   REMARKS
TWIN CITIES    PTCLDY    75  46  35 S13       29.74R
ST PAUL        MOCLDY    70  47  43 S13G18    29.75R
CRYSTAL        FAIR      72  45  37 S5        29.73R
BLAINE         CLEAR     72  43  35 SE3       29.74R
LAKEVILLE      CLEAR     70  48  46 S7        29.75R
EDEN PRAIRIE   MOCLDY    72  46  39 SW9       29.74R
SOUTH ST PAUL  PTCLDY    73  43  34 S12       29.75R
LAKE ELMO      FAIR      63  45  51 SE3       29.76R
$$
MNZ001>005-007-008-013>017-022>024-027-028-030300-
   Northwest Minnesota

CITY           SKY/WX    TMP DP  RH WIND       PRES   REMARKS
BEMIDJI        CLOUDY    64  46  52 S12       29.68F
HALLOCK        PTCLDY    66  39  37 S10       29.55R
ROSEAU         CLOUDY    70  43  37 CALM      29.59R
WARROAD        LGT RAIN  70  46  43 W7        29.61R
THIEF RVR FALL MOCLDY    64  46  52 S21G26    29.60R
CROOKSTON      MOCLDY    64  46  52 SE16      29.59F
DETROIT LAKES  CLOUDY    61  50  67 SE17      29.71F
MOORHEAD       CLOUDY    64  48  55 SE18G24   29.61F
PARK RAPIDS    LGT RAIN  63  48  58 W24G37    29.79R
MAHNOMEN       FAIR      63  46  54 S15       29.63F
$$
MNZ006-009>011-018-025>026-030300-
   North Central Minnesota

CITY           SKY/WX    TMP DP  RH WIND       PRES   REMARKS
BAUDETTE       CLOUDY    70  39  32 S15G21    29.60S
FLAG ISLAND    CLOUDY    52  46  82 S8        29.60R
INTL FALLS     CLOUDY    71  36  27 SW9       29.64R
WASKISH        CLOUDY    70  41  35 CALM      29.66S
BIG FORK       CLOUDY    70  34  26 S9        29.69F
LONGVILLE      CLOUDY    66  39  37 CALM      29.72S
GRAND RAPIDS   MOCLDY    66  37  34 S7        29.73R
CRANE LAKE     MOCLDY    68  34  28 S6        29.70R
COOK           PTCLDY    70  34  26 S8        29.71R
WALKER         LGT RAIN  65  45  48 W22G30    29.76R
$$
MNZ012-019>021-037-030300-
   Northeast Minnesota

CITY           SKY/WX    TMP DP  RH WIND       PRES   REMARKS
DULUTH         MOCLDY    60  42  51 SE3       29.76R
ELY            MOCLDY    66  34  30 S6        29.73R
HIBBING        MOCLDY    66  34  30 CALM      29.72R
EVELETH        MOCLDY    64  34  32 S6        29.75R
DULUTH HARBOR  PTCLDY    45  39  81 N3        29.77R
TWO HARBORS    MOCLDY    57  46  67 CALM      29.74R
SILVER BAY     MOCLDY    54  45  71 CALM      29.74R
GRAND MARAIS     N/A     41  37  86 CALM      29.77R
G MARAIS ARPRT MOCLDY    52  39  62 CALM      29.79S
$$
MNZ029>031-032-039>041-046>048-054>057-064-030300-
   West Central Minnesota

CITY           SKY/WX    TMP DP  RH WIND       PRES   REMARKS
FERGUS FALLS   LGT RAIN  63  54  72 N5        29.75R
WHEATON        PTCLDY    72  45  37 N23G30    29.69R
MORRIS         PTCLDY    72  43  35 S10       29.65S
ALEXANDRIA     CLOUDY    71  41  33 SE8       29.69S
ELBOW LAKE     LGT RAIN  66  50  56 N20G26    29.72R
WADENA         CLOUDY    70  45  40 NW26G45   29.76R
GLENWOOD       PTCLDY    70  41  35 S6        29.69F
APPLETON       CLEAR     75  39  27 S9        29.66S
BENSON         FAIR      70  39  32 SW6       29.68R
ORTONVILLE     CLEAR     73  37  27 S7        29.65S
MADISON        CLEAR     73  39  29 S12       29.67R
WILLMAR        FAIR      75  45  33 S3        29.72R
$$
MNZ033>034-036-042>043-049>051-058-059-030300-
   Central Minnesota

CITY           SKY/WX    TMP DP  RH WIND       PRES   REMARKS
ST CLOUD       PTCLDY    68  44  42 SE6       29.71R
SAUK CENTRE    FAIR      69  39  34 SE6       29.69F
PAYNESVILLE    PTCLDY    67  39  35 E7        29.71R
AITKIN         MOCLDY    63  43  48 CALM      29.72R
PINE RIVER     MOCLDY    66  46  48 CALM      29.76R
BRAINERD       MOCLDY    63  42  46 SE3       29.72R
STAPLES        MOCLDY    70  39  32 CALM      29.71R
LONG PRAIRIE   FAIR      70  37  30 E6        29.70S
LITTLE FALLS   MOCLDY    68  39  34 E5        29.71S
LITCHFIELD     PTCLDY    73  46  38 CALM      29.73R
BUFFALO        PTCLDY    71  43  36 SE5       29.74R
MAPLE LAKE     CLEAR     69  49  49 S3        29.74R
$$
MNZ037-044-045-052-053-030300-
   East Central Minnesota

CITY           SKY/WX    TMP DP  RH WIND       PRES   REMARKS
PRINCETON      PTCLDY    68  45  42 CALM      29.73R
MORA           PTCLDY    61  41  48 CALM      29.75R
CAMBRIDGE      CLEAR     72  50  46 CALM      29.73R
RUSH CITY      CLEAR     65  44  46 CALM      29.74R
MOOSE LAKE     PTCLDY    64  39  39 CALM      29.73R
HINCKLEY       FAIR      61  45  55 CALM      29.75R
CLOQUET        PTCLDY    61  43  51 E5        29.76R
MCGREGOR       MOCLDY    63  43  48 CALM      29.74R
$$
MNZ071>073-080-081-089-090-097-098-030300-
   Southwest Minnesota

CITY           SKY/WX    TMP DP  RH WIND       PRES   REMARKS
MONTEVIDEO     CLEAR     75  43  31 SW12G20   29.70R
GRANITE FALLS  CLEAR     74  43  33 S14       29.72R
CANBY          CLEAR     74  41  30 S7        29.70R
MARSHALL       CLEAR     73  46  38 S15       29.71R
REDWOOD FALLS  CLEAR     74  47  38 S14       29.71R
OLIVIA         CLEAR     72  43  35 S13G20    29.72R
PIPESTONE      CLEAR     70  48  46 S12       29.73S
WINDOM         CLEAR     70  52  52 S8        29.76S
WORTHINGTON    CLEAR     68  50  52 S10       29.77S
JACKSON        CLEAR     68  52  56 S12       29.78S
TRACY          CLEAR     73  50  45 S13G18    29.73R
SLAYTON        CLEAR     69  50  50 S7        29.75S
$$
MNZ065>067-074>077-082>085-091>093-030300-
   South Central Minnesota

CITY           SKY/WX    TMP DP  RH WIND       PRES   REMARKS
MANKATO        CLEAR     72  46  40 S13       29.77R
NEW ULM        CLEAR     72  46  40 S14       29.74R
ST JAMES       CLEAR     72  50  46 S13       29.77S
FAIRMONT       CLEAR     66  48  52 S16       29.78S
GLENCOE        CLEAR     73  51  45 S10G16    29.74R
FARIBAULT      CLEAR     70  48  46 S6        29.78R
OWATONNA       PTCLDY    70  46  43 S13       29.79R
WASECA         PTCLDY    70  48  46 S16       29.80R
ALBERT LEA     PTCLDY    70  48  46 S13       29.82R
$$
MNZ078>079-086>088-094>096-030300-
   Southeast Minnesota

CITY           SKY/WX    TMP DP  RH WIND       PRES   REMARKS
ROCHESTER      CLEAR     66  49  54 S16       29.83R
RED WING       CLEAR     73  46  38 S12       29.76R
STANTON        CLEAR     72  46  39 S6        29.76R
DODGE CENTER   CLEAR     66  50  55 S15       29.82R
WINONA         CLEAR     72  48  43 SW9       29.82R
AUSTIN         PTCLDY    64  50  59 S14       29.83R
PRESTON        CLEAR     65  49  56 S12G20    29.86S
$$
ABBREVIATIONS USED IN REMARKS
   TC - TEMPERATURES IN CELSIUS
  WCI - WIND CHILL INDEX
   HX - HEAT INDEX
  VSB - VISIBILITY
$$


USA.gov is the U.S. government's official web portal to all federal, state and local government web resources and services.